Eau Claire, WI

4:25 AM CST on January 17, 2018 (GMT -0600)
Chippewa Valley Regional

Weather History for KEAU - July, 2012

Change the Weather History Date:

Thursday, July 12, 2012

  Actual Average Record
Temperature  
Mean Temperature 75 °F 72 °F  
Max Temperature 91 °F 83 °F 110 °F (1936)
Min Temperature 59 °F 61 °F 43 °F (1941)
Degree Days  
Heating Degree Days 0 0  
Month to date heating degree days 0 0  
Since 1 June heating degree days 28 62  
Since 1 July heating degree days 0 0  
Cooling Degree Days 10 7  
Month to date cooling degree days 157 83  
Year to date cooling degree days 393 235  
Since 1 June cooling degree days 323 203  
Growing Degree Days 26 (Base 50)    
Moisture  
Dew Point 56 °F    
Average Humidity 60    
Maximum Humidity 97    
Minimum Humidity 23    
Precipitation  
Precipitation 0.00 in 0.12 in 2.58 in (1912)
Month to date precipitation 0.76 1.51  
Year to date precipitation 16.26 15.28  
Snow  
Snow 0.00 in 0.00 in 0.00 in ()
Month to date snowfall 0.0 0.0  
Since 1 June snowfall 0.0 0.0  
Since 1 July snowfall 0.0 0.0  
Snow Depth 0.00 in    
Sea Level Pressure  
Sea Level Pressure 30.02 in    
Wind  
Wind Speed 6 mph (South)    
Max Wind Speed 17 mph    
Max Gust Speed 24 mph    
Visibility 10 miles    
Events      
T = Trace of Precipitation, MM = Missing Value Source: NWS Daily Summary

Daily Weather History Graph

Daily Weather History Graph

Search for Another Location

Airport or City:

Trip Planner

Search our weather history database for the weather conditions in past years. The results will help you decide how hot, cold, wet, or windy it might be!

Date:

Astronomy

Jul. 12, 2012 Rise Set
Actual Time 5:31 AM CDT 8:51 PM CDT
Civil Twilight 4:55 AM CDT 9:27 PM CDT
Nautical Twilight 4:08 AM CDT 10:13 PM CDT
Astronomical Twilight 3:09 AM CDT 11:12 PM CDT
Moon 12:41 AM CDT (7/12) 3:19 PM CDT (7/12)
Length of Visible Light 16h 31m
Length of Day
15h 19m
Waning Crescent, 35% of the Moon is Illuminated
Jul 12
Waning Crescent
Jul 18
New
Jul 26
First Quarter
Aug 1
Full
Aug 9
Last Quarter

Hourly Weather History & Observations

Time (CDT) Temp. Heat Index Dew Point Humidity Pressure Visibility Wind Dir Wind Speed Gust Speed Precip Events Conditions
12:56 AM 66.0 °F - 61.0 °F 84% 30.05 in 10.0 mi Calm Calm - N/A   Clear
1:56 AM 64.9 °F - 61.0 °F 87% 30.04 in 10.0 mi Calm Calm - N/A   Clear
2:56 AM 63.0 °F - 60.1 °F 90% 30.04 in 10.0 mi Calm Calm - N/A   Clear
3:56 AM 61.0 °F - 59.0 °F 93% 30.04 in 10.0 mi Calm Calm - N/A   Clear
4:56 AM 61.0 °F - 57.9 °F 90% 30.04 in 10.0 mi Calm Calm - N/A   Clear
5:56 AM 61.0 °F - 59.0 °F 93% 30.05 in 7.0 mi Calm Calm - N/A   Clear
6:56 AM 66.0 °F - 60.1 °F 81% 30.05 in 10.0 mi South 3.5 mph - N/A   Clear
7:56 AM 73.0 °F - 59.0 °F 61% 30.06 in 10.0 mi Calm Calm - N/A   Clear
8:56 AM 75.9 °F - 59.0 °F 56% 30.07 in 10.0 mi South 3.5 mph - N/A   Clear
9:56 AM 81.0 °F 81.1 °F 57.9 °F 45% 30.07 in 10.0 mi SW 3.5 mph - N/A   Clear
10:56 AM 84.0 °F 82.9 °F 55.0 °F 37% 30.06 in 10.0 mi SW 5.8 mph - N/A   Clear
11:56 AM 87.1 °F - 52.0 °F 30% 30.04 in 10.0 mi SSE 9.2 mph 24.2 mph N/A   Partly Cloudy
12:56 PM 88.0 °F - 50.0 °F 27% 30.04 in 10.0 mi South 12.7 mph - N/A   Clear
1:56 PM 89.1 °F - 46.9 °F 23% 30.02 in 10.0 mi SSW 10.4 mph - N/A   Clear
2:56 PM 90.0 °F - 48.9 °F 24% 30.01 in 10.0 mi SSW 11.5 mph 18.4 mph N/A   Clear
3:56 PM 89.1 °F - 51.1 °F 27% 30.00 in 10.0 mi South 10.4 mph 21.9 mph N/A   Clear
4:56 PM 90.0 °F - 51.1 °F 26% 29.99 in 10.0 mi South 12.7 mph - N/A   Clear
5:56 PM 90.0 °F 87.5 °F 53.1 °F 28% 29.98 in 10.0 mi South 9.2 mph - N/A   Clear
6:56 PM 88.0 °F 85.9 °F 54.0 °F 31% 29.98 in 10.0 mi South 9.2 mph - N/A   Clear
7:56 PM 86.0 °F 84.2 °F 53.6 °F 33% 29.99 in 10.0 mi South 8.1 mph - N/A   Clear
8:56 PM 82.0 °F 81.4 °F 55.0 °F 39% 29.97 in 10.0 mi SSE 5.8 mph - N/A   Clear
9:56 PM 79.0 °F - 55.9 °F 45% 29.97 in 10.0 mi SSE 5.8 mph - N/A   Clear
10:56 PM 77.0 °F - 55.9 °F 48% 29.97 in 10.0 mi SSE 6.9 mph - N/A   Clear
11:56 PM 75.0 °F - 55.9 °F 51% 29.98 in 10.0 mi South 4.6 mph - N/A   Scattered Clouds